This demonstration page uses our WeatherBlox Daily Observations layout. Learn more.

Left ArrowRight Arrow

39.92423, -83.80882

Hourly Observations for February 14, 2020

Temp ( °F °C ) Dew Point ( °F °C ) Humidity (%) Winds ( mph kmh ) Pressure ( in mb ) Visibility ( mi km ) Precip ( " mm )
12:22 am 00:22 Cloudy with Light Snow 18 -8 16 -9 93 93 WNW 17 28 30.38 1029 8 13 0.00 0.00
12:47 am 00:47 Cloudy with Light Snow 18 -8 14 -10 86 86 WNW 14 22 30.39 1029 9 14 0.00 0.00
12:56 am 00:56 Cloudy with Light Snow 17 -8.3 14 -10 88 88 WNW 14 22 30.35 1028 9 14 0.00 0.00
1:56 am 01:56 Cloudy with Light Snow 17 -8.3 14 -10 88 88 WNW 13 20 30.37 1028 7 11 0.00 0.00
2:56 am 02:56 Cloudy with Light Snow 15 -9.4 12 -11.1 88 88 WNW 14 22 30.40 1029 9 14 0.00 0.00
3:56 am 03:56 Cloudy with Light Snow 14 -10 11 -11.7 88 88 NW 14 22 30.41 1030 9 14 0.00 0.00
4:26 am 04:26 Cloudy with Light Snow 14 -10 10 -12 85 85 WNW 16 26 30.46 1032 9 14 0.00 0.00
4:36 am 04:36 Cloudy with Light Snow 14 -10 10 -12 85 85 WNW 13 20 30.47 1032 9 14 0.00 0.00
4:56 am 04:56 Cloudy with Light Snow 14 -10 11 -11.7 88 88 WNW 12 19 30.43 1030 7 11 0.00 0.00
5:56 am 05:56 Cloudy with Light Snow 13 -10.6 10 -12.2 88 88 WNW 10 17 30.46 1031 5 8 0.00 0.00
6:12 am 06:12 Cloudy with Light Snow 12 -11 9 -13 85 85 WNW 13 20 30.52 1033 8 13 0.00 0.00
6:56 am 06:56 Cloudy with Light Snow 12 -11.1 9 -12.8 87 87 W 10 17 30.48 1032 8 13 0.00 0.00
7:08 am 07:08 Cloudy with Light Snow 12 -11 9 -13 85 85 WNW 14 22 30.54 1034 8 13 0.00 0.00
7:24 am 07:24 Cloudy with Light Snow 10 -12 9 -13 92 92 WNW 12 19 30.54 1034 9 14 0.00 0.00
7:56 am 07:56 Cloudy with Light Snow 11 -11.7 8 -13.3 88 88 WNW 13 20 30.52 1033 4 6 0.00 0.00
8:56 am 08:56 Cloudy with Light Snow 11 -11.7 7 -13.9 84 84 WNW 10 17 30.55 1035 9 14 0.00 0.00
9:56 am 09:56 Mostly Cloudy with Light Snow 13 -10.6 8 -13.3 81 81 W 8 13 30.57 1035 9 14 0.00 0.00
10:56 am 10:56 Mostly Cloudy with Light Snow 15 -9.4 10 -12.2 80 80 NNW 8 13 30.58 1036 9 14 0.00 0.00
11:56 am 11:56 Cloudy 16 -8.9 9 -12.8 74 74 N 6 9 30.60 1036 10 16 0.00 0.00
12:56 pm 12:56 Partly Cloudy 16 -8.9 9 -12.8 74 74 N N/A 30.60 1036 10 16 N/A
1:56 pm 13:56 Mostly Cloudy 19 -7.2 12 -11.1 74 74 VRB 3 6 30.59 1036 10 16 N/A
2:35 pm 14:35 Mostly Sunny 19 -7 10 -12 68 68 W 3 6 30.61 1036 10 16 N/A
2:56 pm 14:56 Mostly Sunny 18 -7.8 10 -12.2 71 71 N N/A 30.58 1035 10 16 N/A
3:56 pm 15:56 Cloudy with Light Snow 18 -7.8 10 -12.2 71 71 N N/A 30.58 1035 9 14 0.00 0.00
4:56 pm 16:56 Mostly Sunny 18 -7.8 10 -12.2 71 71 SW 5 7 30.59 1036 10 16 0.00 0.00
5:56 pm 17:56 Cloudy 18 -7.8 11 -11.7 74 74 SSE 3 6 30.59 1036 10 16 N/A
6:56 pm 18:56 Mostly Cloudy 18 -7.8 10 -12.2 71 71 SE 5 7 30.60 1036 10 16 0.00 0.00
7:56 pm 19:56 Cloudy 17 -8.3 11 -11.7 77 77 N N/A 30.60 1036 10 16 N/A
8:56 pm 20:56 Mostly Clear 17 -8.3 9 -12.8 70 70 S 5 7 30.59 1036 10 16 0.00 0.00
9:56 pm 21:56 Mostly Clear 15 -9.4 11 -11.7 84 84 S 3 6 30.58 1035 10 16 N/A
10:20 pm 22:20 Mostly Cloudy 16 -9 10 -12 79 79 S 3 6 30.61 1036 10 16 N/A
10:35 pm 22:35 Partly Cloudy 16 -9 10 -12 79 79 S 3 6 30.62 1037 10 16 N/A
10:56 pm 22:56 Clear 14 -10 10 -12.2 84 84 SSE 3 6 30.58 1035 10 16 N/A
11:56 pm 23:56 Clear 13 -10.6 9 -12.8 84 84 SSE 6 9 30.56 1035 10 16 N/A

Powered by AerisWeather